Weather in Zarqa Ma'in

Jordan     31°34′02″N   35°38′11″E
temp.,
°C
wind,
m/s
gust,
m/s
humid.,
%
clouds,
%
prec.,
mm/h
press.,
hPa
HPBL,
m
27 february, sat
sat2723:00+13ese45480 0.0 101873
02:00+12ese55420 0.0 101769
05:00+11ese55430 0.0 101759
08:00+13ese67390 0.0 1017293
11:00+18se57240 0.0 10161054
14:00+20ese33190 0.0 10132678
17:00+19nne46247 0.0 1013264
20:00+15e453321 0.0 1014116
28 february, sun
sun2823:00+15se2341100 0.0 101478
02:00+13nne124781 0.0 101423
05:00+12wsw235031 0.0 101522
08:00+12w235516 0.0 1016250
11:00+14w44570 0.0 1016624
14:00+16wnw56540 0.0 1015959
17:00+14wnw45580 0.0 1016828
20:00+12wnw34760 0.0 1018417
1 march, mon
mon123:00+10w33840 0.0 1019188
02:00+9w23880 0.0 101870
05:00+8w23944 0.0 101939
08:00+10wsw35773 0.1 1019614
11:00+13w445811 0.0 1019955
14:00+14w45508 0.0 10171173
17:00+13w45570 0.0 1018893
20:00+12wnw23734 0.0 1019364
2 march, tue
tue223:00+10sw12780 0.0 101927
02:00+10wsw22790 0.0 101923
05:00+9wsw22780 0.0 101922
08:00+11wsw34660 0.0 1020579
11:00+14wsw56530 0.0 1019985
14:00+15w67500 0.0 10171191
17:00+13w57460 0.0 10181180
20:00+11wnw23620 0.0 1019409
3 march, wed
wed323:00+10wsw22670 0.0 101934
02:00+8wsw34880 0.0 1019103
05:00+7wsw23910 0.1 101939
08:00+9sw23760 0.1 1019509
11:00+11wsw55570 0.0 1018989
14:00+12wsw67500 0.0 10161258
17:00+11w56548 0.0 10161193
20:00+9w35695 0.0 1018497